Regional Weather Roundup
Issued by NWS Sterling, VA

Home | Current Version | Previous Version | Text Only | Print | Product List | Glossary Off
Versions: 1 2 3 4 5 6 7 8 9 10 11 12 13 14 15 16 17 18 19 20 21 22 23 24 25 26 27 28 29 30 31 32 33 34 35 36 37 38 39 40 41 42 43 44 45 46 47 48 49 50

000
ASUS41 KLWX 260610
RWRLWX

REGIONAL WEATHER ROUNDUP
NATIONAL WEATHER SERVICE BALTIMORE MD/WASHINGTON DC
100 AM EST MON JAN 26 2015

Note: "FAIR" indicates few or no clouds below 12,000 feet
with no significant weather and/or obstructions to visibility.
 TC=TEMPERATURE CELSIUS

 * =Non NWS site. Station does not report precipitation (e.g. rain,
    snow, etc.), thunder, or fog.

DCZ001-MDZ009-015-VAZ040>042-051-053>054-260700-
WASHINGTON METRO

CITY           SKY/WX    TMP DP  RH WIND       PRES   REMARKS
WASHINGTON NAT CLOUDY    45  32  60 E5        29.84F
DULLES         CLOUDY    42  32  67 E3        29.82F
ANDREWS AFB    CLOUDY    41  32  70 E6        29.83F
FT BELVOIR     CLOUDY    41  33  74 SE3       29.84F
QUANTICO       CLOUDY    40  33  76 SE3       29.84F
COLLEGE PARK*  CLOUDY    43  34  70 NE3       29.84F
LEESBURG*      CLOUDY    37  37 100 CALM      29.83S
MANASSAS*      CLOUDY    43  36  75 SE5       29.81F
GAITHERSBURG*  CLOUDY    39  30  70 E3        29.86F

$$

MDZ006>007-011-014-260700-
BALTIMORE METRO

CITY           SKY/WX    TMP DP  RH WIND       PRES   REMARKS
BWI AIRPORT    LGT RAIN  40  33  76 NE12      29.86S
MD SCIENCE CTR   N/A     40  33  76 MISG      29.87F
MARTIN STATE   CLOUDY    41  36  81 NE7       29.90R
ANNAPOLIS      CLOUDY    41  32  70 E7        29.87S
FORT MEADE*    CLOUDY    39  32  75 E6        29.88S

$$

MDZ012-015-019>023-260700-
MARYLAND EASTERN SHORE

CITY           SKY/WX    TMP DP  RH WIND       PRES   REMARKS
OCEAN CITY     CLOUDY    41  36  82 SW5       29.90F
SALISBURY      CLOUDY    44  35  70 SE7       29.87F
BAY BRIDGE AP*   N/A     41  32  70 CALM      29.87S
CAMBRIDGE*     CLOUDY    43  34  70 SE7       29.87S
EASTON*        CLOUDY    43  35  73 S6        29.90S

$$

MDZ017>025-260700-
SOUTHERN MARYLAND

CITY           SKY/WX    TMP DP  RH WIND       PRES   REMARKS
PATUXENT RIVER CLOUDY    41  33  73 SE6       29.85F
ST INIGOES     CLOUDY    42  33  70 SE7       29.85S
LEONARDTOWN*   CLOUDY    41  32  70 SE5       29.86S

$$

MDZ003>005-260700-
NORTH CENTRAL MARYLAND

CITY           SKY/WX    TMP DP  RH WIND       PRES   REMARKS
FREDERICK*     LGT RAIN  36  32  87 N7        29.88S
HAGERSTOWN APT LGT RAIN  36  33  89 NE9       29.82F WCI  29
WESTMINSTER*   LGT RAIN  36  34  93 E7        29.84S

$$

MDZ501>502-260700-
WESTERN MARYLAND

CITY           SKY/WX    TMP DP  RH WIND       PRES   REMARKS
OAKLAND*       FOG       32 N/A N/A SE5       29.67F VSB 1/2
CUMBERLAND*    CLOUDY    36  36 100 CALM      29.83F

$$

VAZ025>031-260700-
SHENANDOAH VALLEY

CITY           SKY/WX    TMP DP  RH WIND       PRES   REMARKS
WINCHESTER*    LGT RAIN  37  34  87 N3        29.79F
FRONT ROYAL*   CLOUDY    36  32  87 NW5       29.78S
LURAY*         CLOUDY    36  36 100 CALM      29.76F
NEW MARKET*    CLOUDY    33  32  97 CALM      29.76F
STAUNTON*      CLOUDY    37  32  85 CALM      29.76F
WAYNESBORO*    CLOUDY    40  32  72 SE5       29.73F

$$

WVZ021-048>050-054>055-260700-
EASTERN WEST VIRGINIA PANHANDLE

CITY           SKY/WX    TMP DP  RH WIND       PRES   REMARKS
MARTINSBURG    CLOUDY    36  33  89 N8        29.81F FOG
PETERSBURG*    MIX PCPN  37  37 100 CALM      29.77F

$$

VAZ036>039-050-260700-
CENTRAL FOOTHILLS

CITY           SKY/WX    TMP DP  RH WIND       PRES   REMARKS
CHARLOTTESVILL CLOUDY    37  32  82 NE5       29.77F
CULPEPER*      CLOUDY    37  36  93 CALM      29.81F
ORANGE*        CLOUDY    36  34  93 CALM      29.80F
GORDONSVILLE*  CLOUDY    32  31  96 CALM      29.78F
WARRENTON*     CLOUDY    40  38  93 CALM      29.80F

$$

VAZ055>057-260700-
NORTH AND CENTRAL PIEDMONT

CITY           SKY/WX    TMP DP  RH WIND       PRES   REMARKS
FREDERICKSBRG* CLOUDY    40  35  82 CALM      29.81F
STAFFORD*      CLOUDY    39  32  78 CALM      29.85F

$$

NCZ024-NYZ072-PAZ021-071-VAZ022-071-260700-
OTHER REGIONAL OBSERVATIONS

CITY           SKY/WX    TMP DP  RH WIND       PRES   REMARKS
NEW YORK CITY  CLOUDY    29   8  41 NE6       30.02R
PHILADELPHIA   CLOUDY    32  26  78 NE13      29.96S WCI  22
PITTSBURGH     LGT SNOW  29  28  96 N7        29.74F VSB 1
ROANOKE        CLOUDY    43  31  62 SE7       29.72F
RICHMOND       CLOUDY    41  35  79 SE6       29.81F
RALEIGH        MOCLDY    41  33  73 SE5       29.76F

$$

ANZ530>537-260700-
MARINE OBSERVATIONS

STATION/POSITION TIME  TEMP    WIND        PRES
                       AIR SEA DIR/SP/G
                 (UTC) (F)     (DEG/KT/KT) (MB)
THOMAS PT LIGHT  0600   41 37  100/  5/  5 1012.4R
BALT KEY BRIDGE  0600   40      50/ 10/ 11 1011.5R
COVE POINT       0600   39     180/ 13/ 14 1011.0S
LEWISETTA        0600   42 39  170/  6/  8 1010.4F
SOLOMONS ISLAND  0600      39                N/A
PINEY POINT      0600          150/  6/  6   N/A

$$




USA.gov is the U.S. government's official web portal to all federal, state and local government web resources and services.